sat.trackr.live / text

‹ back to catalog

STARLINK-3612

NORAD 51770 · 2022-017C

PAYLOAD ACTIVE UNKNOWN

§ Identity

Operator
Country
US
Launch date
2022-02-25
Launch site
AFWTR
Launch vehicle
Mass (kg)
RCS (m²)

Purposes: comms

External: N2YO · Heavens-Above · Gunter

§ Orbital elements

Epoch: 2026-05-24T23:48:25.173792Z

Period
95.44 min
Inclination
53.2149°
Eccentricity
0.0001407
Mean motion
15.08869979 rev/d
Perigee alt
538.7 km
Apogee alt
540.6 km
Semi-major
6,917.8 km
B*
-3.4170e-4
RAAN
356.5856°
Arg perigee
94.1559°
Mean anomaly
265.9594°
Rev number
23,413

§ Raw data

STARLINK-36121 51770U 22017C   26144.99195803 -.00005727  00000+0 -34170-3 0  99932 51770  53.2149 356.5856 0001407  94.1559 265.9594 15.08869979234134

JSON: /api/v1/satellites/51770 · /tle

For live sub-satellite position, see the globe view (requires WebGL).

§ Visibility from observer

Set your observer location to see the next 7 days of passes ≥ 10°. The values pass through the URL so the page stays shareable.

No JS? Fill the form by hand. The geolocation button needs JavaScript.